Location: Sungai Buloh
(3.1000°N, 113.0000°E)
Time: 03:54:29
(UTC+00:00)

Cosmos 1862 Rocket - Visible Passes

Search period start: 21 April 2026 00:00
Search period end: 01 May 2026 00:00
Orbit: 598 x 625 km, 82.5° (Epoch: 20 April)

Date Brightness Start Highest point End Pass type
(mag) Time Alt. Az. Time Alt. Az. Time Alt. Az.
21 Apr 5.3 11:26:56 10° NNW 11:30:50 33° W 11:34:43 10° SSW visible
22 Apr 6.5 11:43:02 10° NW 11:45:42 16° W 11:48:22 10° SW visible
25 Apr 5.0 10:48:54 10° NNW 10:52:58 43° W 10:57:02 10° SSW visible
26 Apr 6.4 11:04:40 10° NW 11:07:51 20° W 11:11:01 10° SW visible
26 Apr 6.5 21:36:20 10° SE 21:39:35 20° E 21:42:50 10° NE visible
27 Apr 5.1 21:50:18 10° SSE 21:54:28 42° E 21:58:38 10° NNE visible
30 Apr 6.6 20:59:01 10° SE 21:01:45 16° E 21:04:27 10° NE visible
